Pisa, Italy

2:06 PM CEST on June 19, 2018 (GMT +0200)
San Giusto

Weather History for LIRP - June, 2018

Change the Weather History Date:

Wednesday, June 13, 2018

  Actual Average Record
Temperature  
Mean Temperature 68 °F -  
Max Temperature 73 °F 81 °F 89 °F (2003)
Min Temperature 62 °F 59 °F 51 °F (1998)
Cooling Degree Days 2    
Growing Degree Days 18 (Base 50)    
Moisture  
Dew Point 65 °F    
Average Humidity 89    
Maximum Humidity 100    
Minimum Humidity 63    
Precipitation  
Precipitation 0.08 in 0.05 in - ()
Sea Level Pressure  
Sea Level Pressure 29.70 in    
Wind  
Wind Speed 6 mph ()    
Max Wind Speed 12 mph    
Max Gust Speed -    
Visibility 6.4 miles    
Events Rain    
Averages and records for this station are not official NWS values.
T = Trace of Precipitation, MM = Missing Value Source: Averaged Metar Reports

Daily Weather History Graph

Daily Weather History Graph

Search for Another Location

Airport or City:

Astronomy

Jun. 13, 2018 Rise Set
Actual Time 5:36 AM CEST 9:00 PM CEST
Civil Twilight 5:00 AM CEST 9:36 PM CEST
Nautical Twilight 4:13 AM CEST 10:23 PM CEST
Astronomical Twilight 3:14 AM CEST 11:22 PM CEST
Moon 5:27 AM CEST (6/13) 8:34 PM CEST (6/13)
Length of Visible Light 16h 36m
Length of Day
15h 24m
Waning Crescent, 0% of the Moon is Illuminated
Jun 13
Waning Crescent
Jun 13
New
Jun 20
First Quarter
Jun 28
Full
Jul 6
Last Quarter

Hourly Weather History & Observations

Time (CEST) Temp. Dew Point Humidity Pressure Visibility Wind Dir Wind Speed Gust Speed Precip Events Conditions
12:15 AM 68.0 °F 66.2 °F 94% 29.77 in 6.2 mi West 6.9 mph - N/A   Scattered Clouds
12:45 AM 68.0 °F 66.2 °F 94% 29.77 in 6.2 mi West 6.9 mph - N/A   Scattered Clouds
1:15 AM 68.0 °F 66.2 °F 94% 29.77 in 6.2 mi West 6.9 mph - N/A   Scattered Clouds
1:45 AM 68.0 °F 66.2 °F 94% 29.77 in 6.2 mi West 10.4 mph - N/A   Scattered Clouds
2:00 AM 68 °F 66 °F 90% 29.79 in 6 mi West 10.4 mph - -   Partly Cloudy
2:15 AM 68.0 °F 66.2 °F 94% 29.77 in 6.2 mi West 10.4 mph - N/A   Scattered Clouds
2:45 AM 68.0 °F 66.2 °F 94% 29.77 in 6.2 mi West 9.2 mph - N/A   Scattered Clouds
3:15 AM 66.2 °F 64.4 °F 94% 29.77 in 6.2 mi WSW 8.1 mph - N/A   Scattered Clouds
3:45 AM 66.2 °F 64.4 °F 94% 29.74 in 6.2 mi WSW 8.1 mph - N/A   Mostly Cloudy
4:15 AM 66.2 °F 64.4 °F 94% 29.74 in 6.2 mi WSW 8.1 mph - N/A   Mostly Cloudy
4:45 AM 66.2 °F 64.4 °F 94% 29.71 in 6.2 mi West 8.1 mph - N/A   Mostly Cloudy
5:00 AM 66 °F 64 °F 93% 29.73 in 6 mi West 8.1 mph - -   Partly Cloudy
5:15 AM 66.2 °F 64.4 °F 94% 29.71 in 6.2 mi WSW 8.1 mph - N/A   Scattered Clouds
5:45 AM 66.2 °F 64.4 °F 94% 29.71 in 6.2 mi West 6.9 mph - N/A   Scattered Clouds
6:15 AM 66.2 °F 64.4 °F 94% 29.71 in 6.2 mi West 8.1 mph - N/A   Mostly Cloudy
6:45 AM 68.0 °F 64.4 °F 88% 29.71 in 6.2 mi West 2.3 mph - N/A   Mostly Cloudy
7:15 AM 69.8 °F 62.6 °F 78% 29.71 in 6.2 mi Variable 2.3 mph - N/A   Mostly Cloudy
7:45 AM 69.8 °F 62.6 °F 78% 29.71 in 6.2 mi WSW 3.5 mph - N/A Rain Light Rain
8:00 AM 70 °F 63 °F 71% 29.73 in 12 mi WSW 3.5 mph - - Rain Light Rain
8:15 AM 68.0 °F 64.4 °F 88% 29.71 in 6.2 mi WSW 6.9 mph - N/A   Mostly Cloudy
8:45 AM 68.0 °F 64.4 °F 88% 29.71 in 6.2 mi Variable 1.2 mph - N/A   Mostly Cloudy
9:15 AM 68.0 °F 62.6 °F 83% 29.71 in 6.2 mi WNW 3.5 mph - N/A   Mostly Cloudy
9:45 AM 69.8 °F 64.4 °F 83% 29.71 in 6.2 mi NNW 2.3 mph - N/A   Mostly Cloudy
10:15 AM 71.6 °F 62.6 °F 73% 29.71 in 6.2 mi East 3.5 mph - N/A   Scattered Clouds
10:45 AM 71.6 °F 62.6 °F 73% 29.71 in 6.2 mi ENE 3.5 mph - N/A   Scattered Clouds
11:00 AM 72 °F 62 °F 63% 29.73 in 12 mi ENE 3.5 mph - -   Partly Cloudy
11:15 AM 73.4 °F 62.6 °F 69% 29.71 in 6.2 mi NE 2.3 mph - N/A   Partly Cloudy
11:45 AM 73.4 °F 60.8 °F 65% 29.71 in 6.2 mi NW 6.9 mph - N/A   Partly Cloudy
12:15 PM 68.0 °F 66.2 °F 94% 29.71 in 3.1 mi WNW 5.8 mph - N/A Rain Light Rain
12:45 PM 68.0 °F 64.4 °F 88% 29.68 in 6.2 mi WNW 5.8 mph - N/A   Partly Cloudy
1:15 PM 69.8 °F 64.4 °F 83% 29.68 in 6.2 mi WNW 8.1 mph - N/A   Partly Cloudy
1:45 PM 68.0 °F 66.2 °F 94% 29.68 in 6.2 mi NW 11.5 mph - N/A   Partly Cloudy
2:00 PM 69 °F 65 °F 84% 29.70 in 6 mi NW 11.5 mph - - Rain Light Rain
2:15 PM 68.0 °F 64.4 °F 88% 29.68 in 6.2 mi NNW 11.5 mph - N/A   Partly Cloudy
2:45 PM 68.0 °F 64.4 °F 88% 29.68 in 6.2 mi North 9.2 mph - N/A   Scattered Clouds
3:15 PM 68.0 °F 64.4 °F 88% 29.68 in 6.2 mi NNW 4.6 mph - N/A   Mostly Cloudy
3:45 PM 68.0 °F 64.4 °F 88% 29.68 in 6.2 mi North 2.3 mph - N/A Rain Light Rain
4:15 PM 68.0 °F 64.4 °F 88% 29.68 in 6.2 mi NNE 3.5 mph - N/A   Mostly Cloudy
4:45 PM 68.0 °F 66.2 °F 94% 29.68 in 6.2 mi East 4.6 mph - N/A Rain Light Rain
5:00 PM 68 °F 67 °F 94% 29.68 in 7 mi East 4.6 mph - - Rain Light Rain
5:15 PM 68.0 °F 68.0 °F 100% 29.68 in 6.2 mi SE 4.6 mph - N/A   Partly Cloudy
5:45 PM 68.0 °F 66.2 °F 94% 29.65 in 6.2 mi Calm Calm - N/A   Partly Cloudy
6:15 PM 69.8 °F 66.2 °F 88% 29.65 in 6.2 mi WNW 3.5 mph - N/A   Partly Cloudy
6:45 PM 69.8 °F 66.2 °F 88% 29.65 in 6.2 mi SE 3.5 mph - N/A   Partly Cloudy
7:15 PM 69.8 °F 66.2 °F 88% 29.65 in 6.2 mi ESE 3.5 mph - N/A   Partly Cloudy
7:45 PM 68.0 °F 66.2 °F 94% 29.65 in 6.2 mi ESE 5.8 mph - N/A   Partly Cloudy
8:15 PM 68.0 °F 66.2 °F 94% 29.65 in 6.2 mi ESE 4.6 mph - N/A   Partly Cloudy
8:45 PM 66.2 °F 66.2 °F 100% 29.65 in 6.2 mi SE 3.5 mph - N/A   Partly Cloudy
9:15 PM 66.2 °F 66.2 °F 100% 29.65 in - ESE 2.3 mph - N/A   Clear
9:45 PM 64.4 °F 64.4 °F 100% 29.65 in - East 2.3 mph - N/A   Clear
10:15 PM 64.4 °F 64.4 °F 100% 29.68 in - East 3.5 mph - N/A   Clear
10:45 PM 62.6 °F 62.6 °F 100% 29.68 in - ESE 4.6 mph - N/A   Clear
11:15 PM 62.6 °F 62.6 °F 100% 29.68 in - South 3.5 mph - N/A   Clear
11:45 PM 62.6 °F 62.6 °F 100% 29.68 in - Variable 1.2 mph - N/A   Clear